Voltar ao catálogo

QIANFAN-121

AtivoComunicaçõesPO
NORAD 68648·PAYLOAD·🇨🇳 China

Lançado Apr 7, 2026 de Wenchang Space Launch Site

Loading…

Próximas Passagens (próximas 24 horas)

TLE

AtualizadoSource: Space-Track

Época: Sep 14, 2026, 21:27 UTC

1 68648U 26075N   26257.89427349  .00000064  00000-0  80262-4 0  9992
2 68648  88.9874 311.8406 0002253  99.3783 260.7623 13.51023490 21920

Acompanhe QIANFAN-121 em tempo real com AllMySat

Download on the App Store